Location: Unspecified
(0.0000°N, 0.0000°E)
Time: 04:23:28
(UTC+00:00)

CANX-2 - Pass Details

Date: 22 May 2026
Orbit: 542 x 558 km, 97.9° (Epoch: 11 June)

Event Time Altitude Azimuth Distance (km) Brightness Sun altitude
Rises 04:43:45 0° 345° (NNW) 2,685 ? -17.1°
Reaches altitude 10° 04:46:20 10° 327° (NNW) 1,798 ? -16.5°
Enters shadow 04:48:15 18° 298° (WNW) 1,385 ? -16.0°
